LINCON Weather Reports


Display with metric or nautical units.
time (UTC)temp
F
wind
direction
speed
MPH
gust
MPH
rain 1hr
in
rain 24hr
in
rain mn
in
humidity
%
barometer
mb
20260906194733 64 288 4.0 8.0 0.00 0.00 0.00 95 1013.5
20260906194233 63 256 0.0 8.0 0.00 0.00 0.00 96 1013.5
20260906193733 63 278 2.0 6.0 0.00 0.00 0.00 96 1013.5
20260906193233 63 287 3.0 5.0 0.00 0.00 0.00 96 1013.4
20260906192733 63 243 1.0 3.0 0.00 0.00 0.00 96 1013.4
20260906192233 63 0 0.0 4.0 0.00 0.00 0.00 96 1013.4
20260906191733 63 243 0.0 4.0 0.00 0.00 0.00 97 1013.4
20260906191233 63 261 0.0 4.0 0.00 0.00 0.00 97 1013.4
20260906190733 63 0 0.0 3.0 0.00 0.00 0.00 99 1013.4
20260906190233 63 270 0.0 5.0 0.00 0.00 0.00 99 1013.5
20260906185735 63 0 0.0 5.0 0.00 0.00 0.00 100 1013.5
20260906185233 63 266 0.0 5.0 0.00 0.00 0.00 100 1013.5
20260906184733 62 0 0.0 0.0 0.00 0.00 0.00 100 1013.5
20260906184233 62 0 0.0 0.0 0.00 0.00 0.00 100 1013.5
20260906183733 62 0 0.0 0.0 0.00 0.00 0.00 100 1013.4
20260906183233 61 0 0.0 0.0 0.00 0.01 0.00 100 1013.4
20260906182733 61 0 0.0 0.0 0.00 0.01 0.00 100 1013.4
20260906182233 61 0 0.0 0.0 0.00 0.01 0.00 100 1013.4
20260906181733 60 0 0.0 0.0 0.00 0.01 0.00 100 1013.4
20260906181233 60 0 0.0 0.0 0.00 0.01 0.00 100 1013.3
20260906180733 60 0 0.0 0.0 0.00 0.01 0.00 100 1013.1
20260906180233 60 0 0.0 0.0 0.00 0.01 0.00 100 1013.1
20260906175733 59 0 0.0 0.0 0.00 0.01 0.00 100 1013.2
20260906175233 59 0 0.0 0.0 0.00 0.01 0.00 100 1013.1
20260906174733 59 0 0.0 0.0 0.00 0.01 0.00 100 1013.1
20260906174233 59 0 0.0 0.0 0.00 0.01 0.00 100 1013.1
20260906173733 59 0 0.0 0.0 0.00 0.01 0.00 100 1013.1
20260906173233 59 0 0.0 0.0 0.00 0.01 0.00 100 1013.1
20260906172734 59 0 0.0 0.0 0.00 0.01 0.00 100 1013.1
20260906172233 59 0 0.0 0.0 0.00 0.01 0.00 100 1013.1
20260906171733 58 0 0.0 0.0 0.00 0.01 0.00 100 1013.1
20260906171233 58 0 0.0 0.0 0.00 0.01 0.00 100 1013.1
20260906170733 58 0 0.0 0.0 0.00 0.01 0.00 100 1013.1
20260906170233 58 0 0.0 0.0 0.00 0.01 0.00 100 1013.1
20260906165733 58 0 0.0 0.0 0.00 0.01 0.00 100 1013.2
20260906165233 58 0 0.0 0.0 0.00 0.01 0.00 100 1013.3
20260906164733 58 0 0.0 0.0 0.00 0.01 0.00 100 1013.2
20260906164233 57 0 0.0 0.0 0.00 0.01 0.00 100 1013.2
20260906163733 57 0 0.0 0.0 0.00 0.01 0.00 100 1013.1
20260906163233 57 0 0.0 0.0 0.00 0.01 0.00 100 1013.0
20260906162737 57 0 0.0 0.0 0.00 0.01 0.00 100 1013.0
20260906162233 57 0 0.0 0.0 0.00 0.01 0.00 100 1013.0
20260906161733 57 0 0.0 0.0 0.00 0.01 0.00 100 1013.0
20260906161233 57 0 0.0 0.0 0.00 0.01 0.00 100 1012.9
20260906160733 57 0 0.0 0.0 0.00 0.01 0.00 100 1012.9
20260906160233 57 0 0.0 0.0 0.00 0.01 0.00 100 1012.9
20260906155733 57 0 0.0 0.0 0.00 0.01 0.00 100 1012.9
20260906155233 57 0 0.0 0.0 0.00 0.01 0.00 100 1012.9
20260906154733 57 0 0.0 0.0 0.00 0.01 0.00 100 1012.8
20260906154233 57 0 0.0 0.0 0.00 0.01 0.00 100 1012.8
20260906153733 57 0 0.0 0.0 0.00 0.01 0.00 100 1012.7
20260906153233 57 0 0.0 0.0 0.00 0.01 0.00 100 1012.7
20260906152733 57 0 0.0 0.0 0.00 0.01 0.00 100 1012.6
20260906152233 57 0 0.0 0.0 0.00 0.01 0.00 100 1012.6
20260906151733 56 0 0.0 0.0 0.00 0.01 0.00 100 1012.5
20260906151233 56 0 0.0 0.0 0.00 0.01 0.00 100 1012.4
20260906150733 56 0 0.0 0.0 0.00 0.01 0.00 100 1012.4
20260906150233 56 0 0.0 0.0 0.00 0.01 0.00 100 1012.4
20260906145733 56 0 0.0 0.0 0.00 0.01 0.00 100 1012.4
20260906145233 56 0 0.0 0.0 0.00 0.01 0.00 100 1012.4
20260906144733 56 0 0.0 0.0 0.00 0.01 0.00 100 1012.4
20260906144233 56 0 0.0 0.0 0.00 0.01 0.00 100 1012.3
20260906143733 56 0 0.0 0.0 0.00 0.01 0.00 100 1012.3
20260906143233 56 0 0.0 0.0 0.00 0.01 0.00 100 1012.2
20260906142733 56 0 0.0 0.0 0.00 0.01 0.00 100 1012.2
20260906142233 56 0 0.0 0.0 0.00 0.01 0.00 100 1012.2
20260906141733 56 0 0.0 0.0 0.00 0.01 0.00 100 1012.1
20260906141233 56 0 0.0 0.0 0.00 0.01 0.00 100 1012.0
20260906140733 56 0 0.0 0.0 0.00 0.01 0.00 100 1011.9
20260906140233 56 0 0.0 0.0 0.00 0.01 0.00 100 1011.8
20260906135734 56 0 0.0 0.0 0.00 0.01 0.00 100 1011.9
20260906135233 56 0 0.0 0.0 0.00 0.01 0.00 100 1011.9
20260906134733 56 0 0.0 0.0 0.00 0.01 0.00 100 1011.9
20260906134233 56 0 0.0 0.0 0.00 0.01 0.00 100 1012.0
20260906133733 56 0 0.0 0.0 0.00 0.01 0.00 100 1011.9
20260906133233 56 0 0.0 0.0 0.00 0.01 0.00 100 1011.9
20260906132733 56 0 0.0 0.0 0.00 0.01 0.00 100 1011.8
20260906132235 56 0 0.0 0.0 0.00 0.01 0.00 100 1011.7
20260906131935 55 64 0.0 8.0 0.00 0.01 0.00 100 1011.8
20260906131733 56 0 0.0 0.0 0.00 0.01 0.00 100 1011.6
20260906131233 56 0 0.0 0.0 0.00 0.01 0.00 100 1011.7
20260906130733 56 0 0.0 0.0 0.00 0.01 0.00 100 1011.7
20260906130233 55 0 0.0 0.0 0.00 0.01 0.00 100 1011.6
20260906125736 55 0 0.0 0.0 0.00 0.01 0.00 100 1011.7
20260906125233 55 0 0.0 0.0 0.00 0.01 0.00 100 1011.7
20260906124733 55 0 0.0 8.0 0.00 0.01 0.00 100 1011.8
20260906124233 55 64 0.0 8.0 0.00 0.01 0.00 100 1011.8
20260906123733 55 63 4.0 8.0 0.00 0.01 0.00 100 1011.9
20260906123233 55 0 0.0 0.0 0.00 0.01 0.00 100 1011.9
20260906122733 55 0 0.0 0.0 0.00 0.01 0.00 100 1011.9
20260906122233 55 0 0.0 0.0 0.00 0.01 0.00 100 1011.8
20260906121733 55 0 0.0 0.0 0.00 0.01 0.00 100 1011.8
20260906121233 55 0 0.0 0.0 0.00 0.01 0.00 100 1011.9
20260906120733 55 0 0.0 0.0 0.00 0.01 0.00 100 1011.9
20260906120233 54 0 0.0 0.0 0.00 0.01 0.00 100 1011.9
20260906115733 54 0 0.0 0.0 0.00 0.01 0.00 100 1011.9
20260906115233 54 0 0.0 0.0 0.00 0.01 0.00 100 1011.9
20260906114733 55 0 0.0 0.0 0.00 0.01 0.00 100 1011.9
20260906114233 55 0 0.0 0.0 0.00 0.01 0.00 100 1011.8
20260906113733 55 0 0.0 0.0 0.00 0.01 0.00 100 1011.8
20260906113233 54 0 0.0 0.0 0.00 0.01 0.00 100 1011.7
20260906112733 54 0 0.0 0.0 0.00 0.01 0.00 100 1011.8
20260906112233 54 0 0.0 0.0 0.00 0.01 0.00 100 1011.8
20260906111733 54 0 0.0 0.0 0.00 0.01 0.00 100 1011.8
20260906111233 54 0 0.0 0.0 0.00 0.01 0.00 100 1011.8
20260906110733 54 0 0.0 0.0 0.00 0.01 0.00 100 1011.7
20260906110233 54 0 0.0 0.0 0.00 0.01 0.00 100 1011.6
20260906105734 54 0 0.0 0.0 0.00 0.01 0.00 100 1011.5
20260906105314 54 0 0.0 0.0 0.00 0.01 0.00 100 1011.5
20260906105233 54 0 0.0 0.0 0.00 0.01 0.00 100 1011.5
20260906104733 55 0 0.0 0.0 0.00 0.01 0.00 100 1011.5
20260906104233 54 0 0.0 0.0 0.00 0.01 0.00 100 1011.4
20260906103733 54 0 0.0 0.0 0.00 0.01 0.00 100 1011.4
20260906103233 54 0 0.0 0.0 0.00 0.01 0.00 100 1011.5
20260906102733 54 0 0.0 0.0 0.00 0.01 0.00 100 1011.6
20260906102233 54 0 0.0 0.0 0.00 0.01 0.00 100 1011.5
20260906101733 54 0 0.0 0.0 0.00 0.01 0.00 100 1011.6
20260906101233 54 0 0.0 0.0 0.00 0.01 0.00 100 1011.6
20260906100733 54 0 0.0 0.0 0.00 0.01 0.00 100 1011.5
20260906100233 55 0 0.0 0.0 0.00 0.01 0.00 100 1011.6
20260906095733 55 0 0.0 0.0 0.00 0.01 0.00 100 1011.6
20260906095233 55 0 0.0 0.0 0.00 0.01 0.00 100 1011.6
20260906094733 54 0 0.0 0.0 0.00 0.01 0.00 100 1011.7
20260906094233 54 0 0.0 0.0 0.00 0.01 0.00 99 1011.7
20260906093733 55 0 0.0 0.0 0.00 0.01 0.00 100 1011.7
20260906093233 54 0 0.0 0.0 0.00 0.01 0.00 99 1011.7
20260906092733 55 0 0.0 0.0 0.00 0.01 0.00 99 1011.7
20260906092233 55 0 0.0 0.0 0.00 0.01 0.00 99 1011.7
20260906091733 55 0 0.0 0.0 0.00 0.01 0.00 99 1011.7
20260906091233 54 0 0.0 0.0 0.00 0.01 0.00 99 1011.8
20260906090733 55 0 0.0 0.0 0.00 0.01 0.00 99 1011.7
20260906090233 55 0 0.0 0.0 0.00 0.01 0.00 99 1011.8
20260906085733 55 0 0.0 0.0 0.00 0.01 0.00 99 1011.8
20260906085233 55 0 0.0 0.0 0.00 0.01 0.00 99 1011.7
20260906084733 55 0 0.0 0.0 0.00 0.01 0.00 99 1011.7
20260906084233 55 0 0.0 0.0 0.00 0.01 0.00 99 1011.8
20260906083733 55 0 0.0 0.0 0.00 0.01 0.00 99 1011.9
20260906083233 56 0 0.0 0.0 0.00 0.01 0.00 99 1011.8
20260906082733 55 0 0.0 0.0 0.00 0.01 0.00 99 1011.9
20260906082236 55 0 0.0 0.0 0.00 0.01 0.00 98 1011.9
20260906081734 55 0 0.0 0.0 0.00 0.01 0.00 98 1011.9
20260906081233 55 0 0.0 0.0 0.00 0.01 0.00 98 1011.9
20260906080733 56 0 0.0 0.0 0.00 0.01 0.00 98 1011.9
20260906080233 55 0 0.0 0.0 0.00 0.01 0.00 98 1011.9
20260906075733 56 0 0.0 0.0 0.00 0.01 0.00 98 1011.9
20260906075233 56 0 0.0 0.0 0.00 0.01 0.00 98 1011.9
20260906074733 56 0 0.0 0.0 0.00 0.01 0.00 98 1011.9
20260906074233 56 0 0.0 0.0 0.00 0.01 0.00 98 1011.9
20260906073733 56 0 0.0 0.0 0.00 0.01 0.00 98 1011.9
20260906073233 56 0 0.0 0.0 0.00 0.01 0.00 98 1011.8
20260906072733 56 0 0.0 0.0 0.00 0.01 0.00 98 1011.9
20260906072233 56 0 0.0 0.0 0.00 0.01 0.00 98 1011.9
20260906071733 56 0 0.0 0.0 0.00 0.01 0.00 98 1011.9
20260906071233 56 0 0.0 0.0 0.00 0.01 0.00 97 1011.9
20260906070732 56 0 0.0 0.0 0.00 0.01 0.00 97 1011.9
20260906070234 56 0 0.0 0.0 0.00 0.01 0.00 97 1011.9
20260906065734 56 0 0.0 0.0 0.00 0.01 0.00 97 1011.9
20260906065233 56 0 0.0 0.0 0.00 0.01 0.00 97 1012.0
20260906064733 57 0 0.0 0.0 0.00 0.01 0.00 97 1011.9
20260906064233 57 0 0.0 0.0 0.00 0.01 0.00 97 1011.9
20260906063733 57 0 0.0 0.0 0.00 0.01 0.00 97 1011.9
20260906063233 57 0 0.0 0.0 0.00 0.01 0.00 97 1011.9
20260906062733 57 0 0.0 0.0 0.00 0.01 0.00 97 1012.0
20260906062232 57 0 0.0 0.0 0.00 0.01 0.00 96 1012.0
20260906061733 57 0 0.0 0.0 0.00 0.01 0.00 96 1012.0
20260906061233 57 0 0.0 0.0 0.00 0.01 0.00 96 1012.0
20260906060733 57 0 0.0 0.0 0.00 0.01 0.00 96 1012.0
20260906060232 57 0 0.0 0.0 0.00 0.01 0.00 96 1012.1
20260906055733 57 0 0.0 0.0 0.00 0.01 0.00 96 1012.0
20260906055234 57 0 0.0 0.0 0.00 0.01 0.00 96 1012.1
20260906054732 57 0 0.0 0.0 0.00 0.01 0.00 96 1012.1
20260906054232 57 0 0.0 0.0 0.00 0.01 0.00 96 1012.1
20260906053732 57 0 0.0 0.0 0.00 0.01 0.00 96 1012.2
20260906053233 58 0 0.0 0.0 0.00 0.01 0.00 95 1012.2
20260906052732 58 0 0.0 0.0 0.00 0.01 0.00 95 1012.2
20260906052232 58 0 0.0 0.0 0.00 0.01 0.00 95 1012.2
20260906051732 58 0 0.0 0.0 0.00 0.01 0.00 95 1012.3
20260906051232 58 0 0.0 0.0 0.00 0.01 0.00 95 1012.3
20260906050732 58 0 0.0 0.0 0.00 0.01 0.00 95 1012.2
20260906050232 58 0 0.0 0.0 0.00 0.01 0.00 94 1012.3
20260906045732 58 0 0.0 0.0 0.00 0.01 0.00 95 1012.4
20260906045232 58 0 0.0 0.0 0.00 0.01 0.00 94 1012.3
20260906044732 58 0 0.0 0.0 0.00 0.01 0.00 94 1012.2
20260906044232 58 0 0.0 0.0 0.00 0.01 0.00 94 1012.3
20260906043733 58 0 0.0 0.0 0.00 0.01 0.00 94 1012.1
20260906043232 59 0 0.0 0.0 0.00 0.01 0.00 93 1012.1
20260906042732 59 0 0.0 0.0 0.00 0.01 0.00 93 1012.0
20260906042232 59 0 0.0 0.0 0.00 0.01 0.00 93 1012.0
20260906041732 59 0 0.0 0.0 0.00 0.01 0.00 92 1012.1
20260906041232 59 0 0.0 0.0 0.00 0.01 0.00 92 1012.2
20260906040732 59 0 0.0 0.0 0.00 0.01 0.00 91 1012.2
20260906040232 59 0 0.0 0.0 0.00 0.01 0.00 90 1012.1
20260906035732 60 0 0.0 0.0 0.00 0.01 0.00 90 1012.1
20260906035232 60 0 0.0 0.0 0.00 0.01 0.00 89 1012.1
20260906034732 60 0 0.0 0.0 0.00 0.01 0.00 89 1012.1
20260906034232 60 0 0.0 0.0 0.00 0.01 0.00 89 1012.1
20260906033732 60 0 0.0 0.0 0.00 0.01 0.00 88 1012.1
20260906033232 60 0 0.0 0.0 0.00 0.01 0.00 88 1012.2
20260906032732 60 0 0.0 0.0 0.00 0.01 0.00 87 1012.3
20260906032232 60 0 0.0 0.0 0.00 0.01 0.00 87 1012.2
20260906031732 61 0 0.0 0.0 0.00 0.01 0.00 87 1012.2
20260906031232 61 0 0.0 0.0 0.00 0.01 0.00 86 1012.2
20260906030732 61 0 0.0 0.0 0.00 0.01 0.00 86 1012.3
20260906030232 61 0 0.0 0.0 0.00 0.01 0.00 86 1012.3
20260906025732 61 0 0.0 0.0 0.00 0.01 0.00 85 1012.4
20260906025232 61 0 0.0 0.0 0.00 0.01 0.00 85 1012.4
20260906024734 61 0 0.0 0.0 0.00 0.01 0.00 84 1012.3
20260906024232 62 0 0.0 0.0 0.00 0.01 0.00 84 1012.3
20260906023732 62 0 0.0 0.0 0.00 0.01 0.00 83 1012.4
20260906023232 62 0 0.0 0.0 0.00 0.01 0.00 83 1012.4
20260906022732 62 0 0.0 0.0 0.00 0.01 0.00 82 1012.4
20260906022232 62 0 0.0 0.0 0.00 0.01 0.00 81 1012.4
20260906021732 62 0 0.0 0.0 0.00 0.01 0.00 81 1012.4
20260906021232 63 0 0.0 0.0 0.00 0.01 0.00 80 1012.4
20260906020732 63 0 0.0 0.0 0.00 0.01 0.00 79 1012.4
20260906020232 63 0 0.0 0.0 0.00 0.01 0.00 79 1012.4
20260906015732 63 0 0.0 0.0 0.00 0.01 0.00 78 1012.3
20260906015232 64 0 0.0 3.0 0.00 0.01 0.00 78 1012.4
20260906014732 64 0 0.0 3.0 0.00 0.01 0.00 78 1012.3
20260906014232 64 306 0.0 3.0 0.00 0.01 0.00 77 1012.3
20260906013732 64 0 0.0 0.0 0.00 0.01 0.00 77 1012.4
20260906013232 64 0 0.0 0.0 0.00 0.01 0.00 77 1012.3
20260906012732 65 0 0.0 0.0 0.00 0.01 0.00 77 1012.3
20260906012232 65 0 0.0 0.0 0.00 0.01 0.00 76 1012.3
20260906011732 65 0 0.0 0.0 0.00 0.01 0.00 76 1012.3
20260906011232 65 0 0.0 0.0 0.00 0.01 0.00 76 1012.3
20260906010732 65 0 0.0 0.0 0.00 0.01 0.00 76 1012.4
20260906010232 65 0 0.0 0.0 0.00 0.01 0.00 76 1012.4
20260906005733 65 0 0.0 0.0 0.00 0.01 0.00 76 1012.3
20260906005232 65 0 0.0 0.0 0.00 0.01 0.00 77 1012.4
20260906004732 65 0 0.0 0.0 0.00 0.01 0.00 77 1012.4
20260906004232 65 0 0.0 0.0 0.00 0.01 0.00 77 1012.3
20260906003732 65 0 0.0 0.0 0.00 0.01 0.00 77 1012.3
20260906003232 65 0 0.0 0.0 0.00 0.01 0.00 77 1012.3
20260906002732 66 0 0.0 0.0 0.00 0.01 0.00 76 1012.3
20260906002232 66 0 0.0 0.0 0.00 0.01 0.00 76 1012.4
20260906001732 66 0 0.0 0.0 0.00 0.01 0.00 76 1012.3
20260906001233 66 0 0.0 0.0 0.00 0.01 0.00 76 1012.2
20260906000732 66 0 0.0 0.0 0.00 0.01 0.00 76 1012.3
20260906000234 66 0 0.0 0.0 0.00 0.01 0.00 76 1012.3
20260905235732 66 0 0.0 0.0 0.00 0.01 0.00 75 1012.4
20260905235233 66 0 0.0 0.0 0.00 0.01 0.00 75 1012.4
20260905234732 66 0 0.0 3.0 0.00 0.01 0.00 75 1012.4
20260905234232 66 0 0.0 3.0 0.00 0.01 0.00 75 1012.4
20260905233732 67 306 0.0 3.0 0.00 0.01 0.00 74 1012.4
20260905233233 67 0 0.0 5.0 0.00 0.02 0.00 73 1012.4
20260905232732 67 287 0.0 5.0 0.00 0.02 0.01 73 1012.4
20260905232233 68 287 0.0 5.0 0.00 0.02 0.01 71 1012.4
20260905231732 69 0 0.0 0.0 0.00 0.02 0.01 71 1012.4
20260905231232 69 0 0.0 0.0 0.00 0.02 0.01 70 1012.4
20260905230732 70 0 0.0 4.0 0.00 0.02 0.01 70 1012.4
20260905230232 69 0 0.0 4.0 0.00 0.02 0.01 70 1012.4
20260905225732 70 320 0.0 4.0 0.00 0.02 0.01 70 1012.4
20260905225233 70 327 1.0 5.0 0.00 0.02 0.01 70 1012.5
20260905224732 70 252 0.0 5.0 0.00 0.02 0.01 70 1012.5
20260905224233 70 323 0.0 5.0 0.00 0.02 0.01 71 1012.6
20260905223732 69 0 0.0 3.0 0.00 0.02 0.01 71 1012.5
20260905223232 69 295 0.0 3.0 0.00 0.05 0.01 72 1012.5
20260905222732 69 0 0.0 0.0 0.00 0.05 0.01 73 1012.6
20260905222233 69 0 0.0 5.0 0.00 0.05 0.01 74 1012.8
20260905221732 68 324 0.0 5.0 0.00 0.05 0.01 75 1012.9
20260905221233 68 231 0.0 5.0 0.00 0.05 0.01 77 1012.9
20260905220732 67 0 3.0 3.0 0.00 0.05 0.01 78 1013.1
20260905220232 66 0 0.0 0.0 0.00 0.05 0.01 78 1013.1
20260905215732 66 0 0.0 0.0 0.00 0.05 0.01 78 1013.1
20260905215232 66 0 0.0 0.0 0.00 0.05 0.01 78 1013.1
20260905214732 66 0 0.0 0.0 0.00 0.05 0.01 78 1013.1
20260905214233 66 0 0.0 6.0 0.00 0.05 0.01 78 1013.1
20260905213732 66 254 0.0 6.0 0.00 0.05 0.01 78 1013.2
20260905213232 66 215 1.0 6.0 0.00 0.06 0.01 78 1013.3
20260905212732 66 285 0.0 5.0 0.00 0.06 0.01 79 1013.3
20260905212232 66 256 2.0 8.0 0.00 0.06 0.01 79 1013.3
20260905211732 66 0 0.0 8.0 0.00 0.06 0.01 79 1013.2
20260905211234 66 249 0.0 8.0 0.00 0.06 0.01 79 1013.3
20260905210732 66 252 0.0 8.0 0.00 0.06 0.01 79 1013.3
20260905210233 66 257 4.0 8.0 0.00 0.06 0.01 78 1013.3
20260905205732 66 257 5.0 8.0 0.00 0.06 0.01 77 1013.3
20260905205232 66 250 2.0 8.0 0.00 0.06 0.01 77 1013.3
20260905204732 67 267 3.0 8.0 0.00 0.06 0.01 77 1013.4
20260905204232 67 287 6.0 8.0 0.00 0.06 0.01 76 1013.3
20260905203732 67 274 3.0 11.0 0.00 0.06 0.01 75 1013.2
20260905203233 67 252 3.0 11.0 0.00 0.06 0.01 75 1013.3
20260905202732 68 242 6.0 11.0 0.00 0.06 0.01 74 1013.2
20260905202232 68 291 6.0 10.0 0.00 0.06 0.01 75 1013.2
20260905201806 68 261 5.0 10.0 0.00 0.06 0.01 77 1013.1
20260905201732 68 261 5.0 10.0 0.00 0.06 0.01 77 1013.1
20260905201233 67 254 6.0 10.0 0.00 0.06 0.01 77 1013.1
20260905200733 67 288 2.0 10.0 0.00 0.06 0.01 77 1013.1
20260905200233 67 282 1.0 10.0 0.00 0.06 0.01 78 1013.2
20260905195732 66 247 6.0 12.0 0.00 0.06 0.01 78 1013.1
20260905195232 66 256 3.0 12.0 0.00 0.06 0.01 76 1013.1